Voltar ao catálogo

USA 580

AtivoMilitarVLEO
NORAD 67492·PAYLOAD·🇺🇸 United States

Lançado Jan 17, 2026 de Vandenberg Space Force Base

Loading…

Próximas Passagens (próximas 24 horas)

TLE

ObsoletoSource: Mike McCants

Época: Jul 24, 2026, 22:47 UTC

1 67492U 26011J   26205.94986119 0.00000000  00000-0  00000-0 0    03
2 67492  70.0250 142.2290 0002000 109.6223 250.3777 14.96713162    00

Acompanhe USA 580 em tempo real com AllMySat

Download on the App Store